Torna al catalogo

STARLINK-37218

AttivoComunicazioniSSO
NORAD 68403·PAYLOAD·🇺🇸 United States

Lanciato Mar 26, 2026 da Vandenberg Space Force Base

Loading…

Prossimi Passaggi (prossime 24 ore)

TLE

AggiornatoSource: CelesTrak SupGP

Epoca: Sep 14, 2026, 21:28 UTC

1 68403C 26063Z   26257.89493056  .00027852  00000+0  86443-3 0  2572
2 68403  97.2864  41.8760 0001094 101.5184 106.2322 15.33431825    11

Traccia STARLINK-37218 in tempo reale con AllMySat

Download on the App Store